[[{"header":{"parameterUnit":"m.s-1","parameterCategory":1,"la1":30.2991,"la2":30.254,"lo1":-89.0895,"lo2":-89.0444,"dy":0.0017,"dx":0.0017,"nx":28,"ny":28,"refTime":"2025-03-13T03:00:00:Z","depth":0,"parameterNumber":2,"parameterNumberName":"U-component_of_WINDS"},"data":[0,0,0,0,0,0,0,0,0,0,0,0,0,0,0,0,0,0,0,0,0,0,0,0,0,0,0,0,0,0,0,0,0,0,0,0,0,0,0,0,0,0,0,0,0,0,0,0,0,0,0,0,0,0,0,0,0,0,-4.6891,-4.6892,0,-4.7026,-4.7028,-4.7029,-4.7051,-4.705,-4.7048,-4.7047,-4.7184,-4.7189,-4.7193,0,0,0,0,0,0,0,0,0,0,0,0,0,-4.6649,-4.6653,-4.6891,-4.6892,-4.6894,-4.7026,-4.7028,-4.7029,-4.7051,-4.705,-4.7048,-4.7047,-4.7182,-4.7188,-4.7194,0,0,0,0,0,0,0,0,0,0,0,0,0,-4.6766,-4.6655,-4.689,-4.6921,-4.6925,-4.7025,-4.7028,-4.703,-4.7051,-4.705,-4.7048,-4.7046,-4.7181,-4.7187,-4.7194,-4.7274,0,0,-4.7216,-4.7219,0,0,0,0,0,0,0,0,-4.6759,-4.6775,-4.6915,-4.6919,-4.6923,-4.702,-4.6993,-4.7112,-4.7052,-4.7003,-4.7047,-4.7045,-4.7131,-4.7142,-4.7171,-4.728,-4.7286,-4.7217,-4.7221,-4.7224,-4.7226,0,0,0,0,0,0,0,-4.6751,-4.6769,-4.6944,-4.6916,-4.6922,-4.6927,-4.6942,-4.7015,-4.7075,-4.7007,-4.7009,-4.7025,-4.7133,-4.7164,-4.7174,-4.7288,-4.7217,-4.7223,-4.7227,-4.723,-4.7468,-4.747,0,0,0,0,0,0,-4.6738,-4.6762,-4.694,-4.6948,-4.6836,-4.6933,-4.6949,-4.6991,-4.7074,-4.7085,-4.7026,-4.7026,-4.7153,-4.7166,-4.7179,-4.7276,-4.7224,-4.7231,-4.7235,-4.7466,-4.7469,-4.7471,0,0,0,0,0,0,-4.6733,-4.6754,-4.6934,-4.6856,-4.6879,-4.6939,-4.6985,-4.6994,-4.7025,-4.7089,-4.7099,-4.7047,-4.7152,-4.7169,-4.725,-4.7281,-4.7234,-4.724,-4.7464,-4.7467,-4.747,-4.7472,0,0,0,0,0,0,-4.6726,-4.6752,-4.6783,-4.6856,-4.6883,-4.7003,-4.6987,-4.6998,-4.7038,-4.7038,-4.7111,-4.7122,-4.7152,-4.7239,-4.7257,-4.729,-4.7246,-4.7461,-4.7465,-4.7469,-4.7469,-4.7475,-4.7479,0,0,0,0,0,-4.6717,-4.6777,-4.6784,-4.6805,-4.6923,-4.7005,-4.702,-4.7054,-4.704,-4.7072,-4.7113,-4.7119,-4.7276,-4.7247,-4.7268,-4.7303,-4.7459,-4.7464,-4.7469,-4.7467,-4.7474,-4.7479,0,0,0,0,0,0,-4.6705,-4.6788,-4.6796,-4.6882,-4.6936,-4.7008,-4.7049,-4.706,-4.7119,-4.7117,-4.7156,-4.7172,-4.7251,-4.7286,-4.7253,-4.7384,-4.7366,-4.7375,-4.7358,-4.7365,-4.737,-4.7359,-4.7252,0,0,0,0,0,-4.6712,-4.6772,-4.6841,-4.6911,-4.6938,-4.6989,-4.7025,-4.7047,-4.7105,-4.7127,-4.7174,-4.7229,-4.7291,-4.733,-4.7391,-4.7475,-4.7491,-4.751,-4.7515,-4.7519,-4.7525,-4.7572,-4.7581,-4.7486,-4.7486,-4.7486,0,0,-4.6728,-4.6781,-4.6816,-4.6909,-4.6954,-4.7014,-4.7008,-4.7072,-4.7117,-4.7137,-4.7216,-4.7252,-4.7317,-4.7399,-4.7438,-4.7431,-4.7555,-4.7525,-4.7527,-4.7532,-4.7578,-4.7586,-4.7594,-4.749,-4.7489,-4.7488,0,0,-4.6786,-4.6833,-4.6896,-4.6941,-4.7009,-4.7043,-4.7058,-4.7129,-4.7154,-4.7234,-4.725,-4.7304,-4.741,-4.7455,-4.7491,-4.7568,-4.7576,-4.7587,-4.7612,-4.7657,-4.7665,-4.7671,-4.7697,-4.7706,-4.7594,-4.7594,-4.7594,0,-4.6797,-4.6889,-4.6926,-4.699,-4.703,-4.7053,-4.7115,-4.7158,-4.7241,-4.7268,-4.726,-4.7392,-4.7437,-4.753,-4.7549,-4.7579,-4.7596,-4.7577,-4.7661,-4.7668,-4.7675,-4.77,-4.7709,-4.7594,-4.7594,-4.7594,-4.7594,0,-4.6897,-4.6961,-4.7004,-4.7084,-4.713,-4.7193,-4.7239,-4.7281,-4.7299,-4.7333,-4.7414,-4.747,-4.7541,-4.7565,-4.7584,-4.7661,-4.7654,-4.7653,-4.7635,-4.7684,-4.7708,-4.7718,-4.7595,-4.7595,-4.7595,-4.7595,0,0,-4.695,-4.7052,-4.7066,-4.7103,-4.7181,-4.723,-4.7295,-4.7365,-4.7399,-4.7457,-4.7511,-4.76,-4.7599,-4.7641,-4.7665,-4.7705,-4.776,-4.7698,-4.77,-4.7706,-4.7848,-4.7846,-4.7857,-4.7767,-4.777,-4.7771,-4.7842,0,-4.7016,-4.7131,-4.7167,-4.7263,-4.7321,-4.7345,-4.74,-4.7454,-4.7488,-4.7543,-4.7581,-4.7643,-4.7638,-4.7663,-4.7704,-4.7745,-4.7789,-4.7741,-4.7816,-4.7818,-4.7797,-4.787,-4.7869,-4.7933,-4.7851,-4.7853,-4.7854,0,-4.7108,-4.7168,-4.7269,-4.7339,-4.7365,-4.7415,-4.7482,-4.7535,-4.7596,-4.7618,-4.7665,-4.7686,-4.7753,-4.7734,-4.7826,-4.7793,-4.7826,-4.7851,-4.7855,-4.7861,-4.7837,-4.7876,-4.7954,-4.7963,-4.787,-4.7869,-4.7868,0,-4.7133,-4.7239,-4.7314,-4.7345,-4.7429,-4.7463,-4.75,-4.7559,-4.7599,-4.7658,-4.7685,-4.7751,-4.7787,-4.7837,-4.7875,-4.7858,-4.7964,-4.7948,-4.7983,-4.7982,-4.8002,-4.8,-4.8084,-4.8028,-4.8028,-4.8028,-4.8027,0,-4.7202,-4.7262,-4.7326,-4.7372,-4.7441,-4.7482,-4.7548,-4.7586,-4.7639,-4.7692,-4.7717,-4.7766,-4.7814,-4.7869,-4.79,-4.7971,-4.7988,-4.8007,-4.8013,-4.8003,-4.8,-4.8023,-4.8019,-4.803,-4.803,-4.8029,-4.8029,0,-4.724,-4.7286,-4.7368,-4.7441,-4.7461,-4.7509,-4.7571,-4.7616,-4.7652,-4.7719,-4.7737,-4.7793,-4.786,-4.7904,-4.7989,-4.8009,-4.8086,-4.8093,-4.8065,-4.8068,-4.81,-4.8095,-4.82,-4.8215,-4.8151,-4.8151,-4.8152,0,-4.728,-4.7327,-4.7406,-4.7443,-4.748,-4.754,-4.7582,-4.7624,-4.7666,-4.774,-4.7775,-4.7844,-4.79,-4.8006,-4.8054,-4.8119,-4.8126,-4.8159,-4.8136,-4.8124,-4.8124,-4.812,-4.8124,-4.8161,-4.8162,-4.8162,-4.8162,0,-4.7344,-4.7365,-4.7424,-4.7491,-4.7539,-4.7594,-4.7649,-4.7678,-4.773,-4.7776,-4.7844,-4.7888,-4.7975,-4.8042,-4.8112,-4.8149,-4.8164,-4.817,-4.8181,-4.8169,-4.815,-4.8159,-4.8072,-4.8166,-4.8166,-4.8166,-4.8165,-4.8165,-4.7383,-4.7426,-4.7488,-4.7553,-4.7599,-4.765,-4.7695,-4.7738,-4.7796,-4.787,-4.7892,-4.7963,-4.8023,-4.8118,-4.8157,-4.8213,-4.8209,-4.8226,-4.823,-4.8233,-4.8232,-4.8144,-4.8226,-4.8226,-4.8226,-4.8226,-4.8226,0,-4.7448,-4.7489,-4.7548,-4.7624,-4.7675,-4.7686,-4.7748,-4.7789,-4.7851,-4.7907,-4.7962,-4.8041,-4.8106,-4.8161,-4.8228,-4.8262,-4.8271,-4.8278,-4.8275,-4.8283,-4.8232,-4.8215,-4.827,-4.827,-4.827,-4.827,-4.827,-4.827,-4.7487,-4.7559,-4.7587,-4.7683,-4.7724,-4.7794,-4.7828,-4.7875,-4.7919,-4.8006,-4.806,-4.8096,-4.8151,-4.8223,-4.8283,-4.8297,-4.832,-4.8326,-4.8341,-4.8292,-4.8287,-4.8282,-4.8265,-4.8331,-4.8331,-4.8387,-4.8388,-4.8388]},{"header":{"parameterUnit":"m.s-1","parameterCategory":1,"la1":30.2991,"la2":30.254,"lo1":-89.0895,"lo2":-89.0444,"dy":0.0017,"dx":0.0017,"nx":28,"ny":28,"refTime":"2025-03-13T03:00:00:Z","depth":0,"parameterNumber":3,"parameterNumberName":"V-component_of_WINDS"},"data":[0,0,0,0,0,0,0,0,0,0,0,0,0,0,0,0,0,0,0,0,0,0,0,0,0,0,0,0,0,0,0,0,0,0,0,0,0,0,0,0,0,0,0,0,0,0,0,0,0,0,0,0,0,0,0,0,0,0,4.6634,4.6635,0,4.6742,4.6743,4.6745,4.6763,4.6762,4.6761,4.676,4.6868,4.6872,4.6876,0,0,0,0,0,0,0,0,0,0,0,0,0,4.6442,4.6446,4.6634,4.6635,4.6637,4.6742,4.6743,4.6745,4.6763,4.6762,4.6761,4.676,4.6867,4.6872,4.6876,0,0,0,0,0,0,0,0,0,0,0,0,0,4.6535,4.6447,4.6634,4.6659,4.6662,4.6742,4.6744,4.6745,4.6764,4.6762,4.6761,4.676,4.6866,4.6871,4.6877,4.6938,0,0,4.6894,4.6896,0,0,0,0,0,0,0,0,4.653,4.6542,4.6654,4.6657,4.6661,4.6738,4.6716,4.681,4.6764,4.6725,4.676,4.6759,4.6826,4.6835,4.6858,4.6944,4.6948,4.6894,4.6898,4.69,4.6902,0,0,0,0,0,0,0,4.6524,4.6538,4.6677,4.6655,4.666,4.6664,4.6676,4.6734,4.6782,4.6728,4.673,4.6742,4.6828,4.6852,4.6861,4.695,4.6894,4.6899,4.6902,4.6905,4.7095,4.7097,0,0,0,0,0,0,4.6513,4.6532,4.6673,4.668,4.6591,4.6669,4.6682,4.6714,4.6781,4.679,4.6743,4.6743,4.6844,4.6854,4.6864,4.6944,4.69,4.6905,4.6908,4.7093,4.7096,4.7097,0,0,0,0,0,0,4.6509,4.6525,4.6669,4.6607,4.6625,4.6673,4.671,4.6717,4.6742,4.6793,4.6801,4.676,4.6843,4.6857,4.6921,4.6948,4.6908,4.6913,4.7091,4.7094,4.7096,4.7102,0,0,0,0,0,0,4.6503,4.6524,4.6548,4.6607,4.6629,4.6724,4.6712,4.672,4.6752,4.6752,4.6811,4.6819,4.6843,4.6913,4.6927,4.6955,4.6917,4.7089,4.7093,4.7096,4.71,4.7105,4.7109,0,0,0,0,0,4.6496,4.6544,4.6549,4.6566,4.666,4.6725,4.6738,4.6765,4.6754,4.6779,4.6812,4.6817,4.6942,4.6919,4.6935,4.6965,4.7088,4.7092,4.7095,4.7098,4.7104,4.7109,0,0,0,0,0,0,4.6485,4.6552,4.6558,4.6626,4.667,4.6728,4.6761,4.677,4.6817,4.6815,4.6846,4.6859,4.6923,4.695,4.6923,4.7031,4.7014,4.7021,4.7011,4.7017,4.7021,4.7014,4.6922,0,0,0,0,0,4.649,4.6539,4.6594,4.6649,4.6671,4.6712,4.6741,4.6759,4.6805,4.6824,4.6861,4.6905,4.6955,4.6987,4.7035,4.7103,4.7118,4.7132,4.7137,4.714,4.7147,4.7188,4.7196,4.711,4.711,4.711,0,0,4.6502,4.6545,4.6573,4.6648,4.6684,4.6734,4.6727,4.6779,4.6817,4.6831,4.6896,4.6925,4.6976,4.7044,4.7075,4.7068,4.7174,4.7145,4.7147,4.7152,4.7193,4.7201,4.7208,4.7113,4.7112,4.7112,0,0,4.655,4.6586,4.6637,4.6674,4.6729,4.6757,4.6769,4.6826,4.6847,4.6912,4.6925,4.6969,4.7053,4.7091,4.7121,4.7185,4.7192,4.7199,4.7223,4.7263,4.727,4.7276,4.7302,4.7311,4.7205,4.7205,4.7205,0,4.6557,4.6633,4.6662,4.6715,4.6749,4.6765,4.6818,4.6852,4.692,4.6943,4.6934,4.7042,4.7078,4.7156,4.7172,4.7194,4.7211,4.7194,4.7267,4.7273,4.728,4.7305,4.7314,4.7206,4.7206,4.7205,4.7205,0,4.6642,4.6694,4.6729,4.6797,4.6833,4.6886,4.6923,4.6957,4.6971,4.7,4.7067,4.711,4.7169,4.7189,4.7202,4.727,4.7264,4.7261,4.7245,4.7288,4.7313,4.7322,4.7207,4.7206,4.7206,4.7206,0,0,4.6685,4.677,4.6782,4.6815,4.6878,4.6919,4.6972,4.7031,4.7061,4.7107,4.7155,4.7226,4.7225,4.7259,4.7276,4.7311,4.7363,4.7304,4.7306,4.7316,4.7444,4.7448,4.7459,4.7368,4.7369,4.7371,4.7441,0,4.6743,4.6841,4.6869,4.6952,4.7002,4.7019,4.7066,4.711,4.7139,4.7185,4.7215,4.7268,4.7259,4.7281,4.7316,4.7349,4.739,4.7344,4.7413,4.7415,4.7403,4.7471,4.7475,4.7539,4.745,4.7451,4.7453,0,4.6823,4.6874,4.6962,4.7022,4.7044,4.7086,4.7144,4.7188,4.7238,4.7256,4.7296,4.7311,4.7369,4.7349,4.7429,4.7398,4.7427,4.7448,4.7451,4.7461,4.7439,4.7486,4.756,4.7571,4.7467,4.7466,4.7465,0,4.6851,4.694,4.7006,4.7032,4.7102,4.7132,4.7162,4.7212,4.7246,4.7296,4.732,4.7375,4.7406,4.7448,4.7479,4.7461,4.7558,4.7539,4.7576,4.7575,4.7598,4.7596,4.7681,4.7611,4.7611,4.7611,4.7611,0,4.6914,4.6969,4.702,4.706,4.7122,4.7153,4.7213,4.7244,4.7289,4.7336,4.7352,4.7396,4.7432,4.7481,4.7504,4.757,4.7582,4.7599,4.7606,4.76,4.7598,4.7622,4.7619,4.7614,4.7613,4.7612,4.7612,0,4.6957,4.6993,4.7066,4.7127,4.7143,4.7187,4.7239,4.7279,4.7308,4.7368,4.7383,4.7429,4.7487,4.7521,4.7594,4.761,4.7684,4.7686,4.7667,4.7671,4.7707,4.7704,4.7812,4.7829,4.7745,4.7745,4.7746,0,4.6996,4.7039,4.7105,4.7139,4.717,4.7223,4.726,4.7292,4.7329,4.7392,4.7425,4.7485,4.7535,4.7627,4.7667,4.7723,4.7729,4.7763,4.7738,4.7732,4.7734,4.7733,4.7738,4.7768,4.7769,4.777,4.777,0,4.7064,4.708,4.7132,4.7192,4.7235,4.7283,4.733,4.7356,4.7397,4.7438,4.7499,4.7538,4.7614,4.7674,4.7734,4.7765,4.7776,4.7777,4.779,4.7786,4.7775,4.7785,4.7683,4.7775,4.7775,4.7775,4.7774,4.7774,4.7109,4.7149,4.7203,4.7261,4.73,4.7345,4.7387,4.7422,4.7474,4.754,4.7555,4.762,4.7671,4.7754,4.7786,4.7838,4.7832,4.7848,4.7853,4.7858,4.7861,4.7764,4.7848,4.7848,4.7848,4.7848,4.7848,0,4.7181,4.7216,4.727,4.7337,4.7383,4.7389,4.7442,4.748,4.7538,4.7585,4.7635,4.7706,4.7765,4.7809,4.787,4.7903,4.7909,4.7918,4.7917,4.7925,4.7861,4.7846,4.7912,4.7912,4.7912,4.7912,4.7912,4.7912,4.7224,4.7293,4.7316,4.7405,4.744,4.7506,4.7536,4.7577,4.7616,4.7696,4.7745,4.7774,4.7821,4.7885,4.794,4.7951,4.7974,4.7983,4.7996,4.7936,4.7929,4.7922,4.7909,4.7987,4.7987,4.8056,4.8056,4.8057]}]]